| time (UTC) | temp F | wind direction | speed knots | gust knots | rain 1hr in | rain 24hr in | rain mn in | humidity % | barometer mb |
| 20260905230037 | 90 | 45 | 3.5 | 7.0 | 0.00 | 0.00 | 0.00 | 71 | 994.2 |
| 20260905223017 | 90 | 45 | 3.5 | 7.0 | 0.00 | 0.00 | 0.00 | 71 | 994.2 |
| 20260905220037 | 90 | 45 | 4.3 | 12.2 | 0.00 | 0.00 | 0.00 | 72 | 994.0 |
| 20260905213037 | 93 | 0 | 2.6 | 7.8 | 0.00 | 0.00 | 0.00 | 66 | 994.2 |
| 20260905210037 | 92 | 0 | 2.6 | 5.2 | 0.00 | 0.00 | 0.00 | 66 | 994.6 |
| 20260905203017 | 91 | 338 | 2.6 | 4.3 | 0.00 | 0.00 | 0.00 | 68 | 994.7 |
| 20260905200017 | 92 | 338 | 2.6 | 5.2 | 0.00 | 0.00 | 0.00 | 69 | 994.9 |
| 20260905193017 | 92 | 338 | 2.6 | 6.1 | 0.00 | 0.00 | 0.00 | 66 | 995.1 |
| 20260905190019 | 92 | 315 | 2.6 | 5.2 | 0.00 | 0.00 | 0.00 | 67 | 995.3 |
| 20260905183017 | 92 | 315 | 2.6 | 7.0 | 0.00 | 0.00 | 0.00 | 65 | 995.3 |
| 20260905180017 | 92 | 338 | 3.5 | 7.0 | 0.00 | 0.00 | 0.00 | 67 | 995.4 |
| 20260905173017 | 92 | 45 | 2.6 | 6.1 | 0.00 | 0.00 | 0.00 | 67 | 995.6 |
| 20260905170019 | 91 | 315 | 4.3 | 8.7 | 0.00 | 0.00 | 0.00 | 67 | 995.8 |
| 20260905163017 | 90 | 293 | 5.2 | 10.4 | 0.00 | 0.00 | 0.00 | 67 | 996.0 |
| 20260905160017 | 90 | 293 | 4.3 | 8.7 | 0.00 | 0.00 | 0.00 | 67 | 995.8 |
| 20260905153037 | 90 | 293 | 2.6 | 8.7 | 0.00 | 0.00 | 0.00 | 66 | 995.4 |
| 20260905150017 | 89 | 248 | 1.7 | 6.1 | 0.00 | 0.00 | 0.00 | 68 | 995.4 |
| 20260905143017 | 87 | 248 | 1.7 | 3.5 | 0.00 | 0.00 | 0.00 | 72 | 995.2 |
| 20260905140018 | 85 | 293 | 2.6 | 6.1 | 0.00 | 0.00 | 0.00 | 74 | 995.3 |
| 20260905133017 | 84 | 270 | 0.9 | 6.1 | 0.00 | 0.00 | 0.00 | 75 | 995.0 |
| 20260905130018 | 81 | 270 | 0.9 | 3.5 | 0.00 | 0.00 | 0.00 | 80 | 994.8 |
| 20260905123017 | 79 | 293 | 0.9 | 4.3 | 0.00 | 0.00 | 0.00 | 81 | 994.9 |
| 20260905120018 | 78 | 225 | 0.9 | 2.6 | 0.00 | 0.00 | 0.00 | 83 | 994.6 |
| 20260905113017 | 78 | 225 | 0.9 | 2.6 | 0.00 | 0.00 | 0.00 | 82 | 994.1 |
| 20260905110017 | 78 | 225 | 1.7 | 4.3 | 0.00 | 0.00 | 0.00 | 82 | 994.0 |
| 20260905103017 | 79 | 225 | 2.6 | 4.3 | 0.00 | 0.00 | 0.00 | 82 | 994.0 |
| 20260905100018 | 78 | 225 | 0.9 | 3.5 | 0.00 | 0.00 | 0.00 | 82 | 994.1 |
| 20260905093017 | 79 | 225 | 0.9 | 2.6 | 0.00 | 0.00 | 0.00 | 82 | 994.2 |
| 20260905090019 | 80 | 225 | 1.7 | 2.6 | 0.00 | 0.00 | 0.00 | 80 | 994.2 |
| 20260905083019 | 80 | 225 | 0.9 | 1.7 | 0.00 | 0.00 | 0.00 | 80 | 994.3 |
| 20260905080017 | 80 | 225 | 1.7 | 4.3 | 0.00 | 0.00 | 0.00 | 80 | 994.3 |
| 20260905073018 | 80 | 225 | 4.3 | 6.1 | 0.00 | 0.00 | 0.00 | 82 | 994.2 |
| 20260905070017 | 81 | 225 | 4.3 | 5.2 | 0.00 | 0.00 | 0.00 | 78 | 994.4 |
| 20260905063018 | 82 | 158 | 2.6 | 4.3 | 0.00 | 0.00 | 0.00 | 79 | 994.7 |
| 20260905060018 | 79 | 158 | 0.9 | 3.5 | 0.00 | 0.00 | 0.00 | 86 | 994.7 |
| 20260905053038 | 80 | 158 | 2.6 | 5.2 | 0.00 | 0.00 | 0.00 | 84 | 994.4 |
| 20260905050018 | 80 | 158 | 4.3 | 6.1 | 0.00 | 0.00 | 0.00 | 85 | 994.1 |
| 20260905043017 | 81 | 158 | 3.5 | 5.2 | 0.00 | 0.00 | 0.00 | 83 | 994.0 |
| 20260905040018 | 82 | 180 | 3.5 | 5.2 | 0.00 | 0.00 | 0.00 | 83 | 994.1 |
| 20260905033017 | 82 | 180 | 2.6 | 4.3 | 0.00 | 0.00 | 0.00 | 81 | 994.2 |
| 20260905030038 | 83 | 225 | 3.5 | 5.2 | 0.00 | 0.00 | 0.00 | 79 | 993.9 |
| 20260905023018 | 85 | 180 | 3.5 | 4.3 | 0.00 | 0.00 | 0.00 | 76 | 993.6 |
| 20260905020018 | 86 | 203 | 1.7 | 3.5 | 0.00 | 0.00 | 0.00 | 72 | 993.8 |
| 20260905013037 | 88 | 203 | 1.7 | 3.5 | 0.00 | 0.00 | 0.00 | 70 | 993.7 |
| 20260905010017 | 88 | 203 | 1.7 | 2.6 | 0.00 | 0.00 | 0.00 | 69 | 993.6 |
| 20260905003017 | 89 | 203 | 1.7 | 2.6 | 0.00 | 0.00 | 0.00 | 68 | 993.6 |
| 20260905000018 | 90 | 203 | 1.7 | 6.1 | 0.00 | 0.00 | 0.00 | 67 | 993.4 |
| 20260904233017 | 92 | 225 | 4.3 | 8.7 | 0.00 | 0.00 | 0.00 | 63 | 993.2 |